Zurück zum Katalog

COSMOS 1285 DEB

AktivHEO
NORAD 12993·DEBRIS·🇷🇺 Russia

Gestartet Aug 4, 1981 von Plesetsk Cosmodrome

Loading…

Nächste Überflüge (nächste 24 Stunden)

TLE

AktuellSource: Space-Track

Epoche: Sep 14, 2026, 11:29 UTC

1 12993U 81071E   26257.47902842 -.00000073  00000-0  00000-0 0  9990
2 12993  67.3361  76.4693 6406345   4.7835 359.1692  1.97855589239974

Verfolge COSMOS 1285 DEB in Echtzeit mit AllMySat

Download on the App Store